Regional Weather Roundup
Issued by NWS

Home | Current Version | Previous Version | Graphics & Text | Print | Product List | Glossary On
Versions: 1 2 3 4 5 6 7 8 9 10 11 12 13 14 15 16 17 18 19 20 21 22 23 24 25 26 27 28 29 30 31 32 33 34 35 36 37 38 39 40 41 42 43 44 45 46 47 48 49 50
000
ASUS43 KLSX 241507
RWRMO

WEATHER SUMMARY FOR MISSOURI
NATIONAL WEATHER SERVICE SPRINGFIELD MO
1000 AM CDT THU APR 24 2014

NOTE: "FAIR" INDICATES FEW OR NO CLOUDS BELOW 12,000 FEET WITH NO
       SIGNIFICANT WEATHER AND/OR OBSTRUCTIONS TO VISIBILITY.
       CURRENT SKY AND/OR WEATHER CONDITIONS ARE NOT AVAILABLE FOR
       CHILLICOTHE AND FARMINGTON.

MOZ001>031-035>038-043-044-053-054-241600-
...NORTHERN AND WESTERN MISSOURI...

CITY           SKY/WX    TMP DP  RH WIND       PRES   REMARKS
KANSAS CTY INT CLOUDY    57  55  93 E10       29.65F
KANSAS C DTWN  CLOUDY    59  55  87 E5        29.65F
LEE`S SUMMIT   HVY RAIN  57  54  89 SE10G17   29.67F FOG
ST JOSEPH      CLOUDY    58  56  93 E5        29.64F
CHILLICOTHE      N/A     53  50  89 S3        29.73R
KIRKSVILLE     CLOUDY    58  40  51 SE12      29.73S

$$
MOZ066>068-077>081-088>096-101>105-241600-
...SOUTHWEST MISSOURI...

CITY           SKY/WX    TMP DP  RH WIND       PRES   REMARKS
SPRINGFIELD    CLOUDY    63  45  51 SE16      29.72S
JOPLIN         LGT RAIN  65  56  72 S16G24    29.65F

$$
MOZ032>034-039>042-045>050-055>058-069>072-241600-
...CENTRAL MISSOURI...

CITY           SKY/WX    TMP DP  RH WIND       PRES   REMARKS
COLUMBIA       CLOUDY    64  40  41 S10       29.74S
JEFFERSON CITY PTSUNNY   65  41  41 CALM      29.75R
ROLLA          PTSUNNY   64  38  38 SE16      29.73F
SEDALIA        CLOUDY    62  51  67 SE6       29.71F
WHITEMAN AFB   LGT RAIN  57  46  65 SE5       29.70S
OSAGE BEACH    CLOUDY    66  39  37 S12G17    29.77R

$$
MOZ051-052-059>065-241600-
...EAST CENTRAL MISSOURI...

CITY           SKY/WX    TMP DP  RH WIND       PRES   REMARKS
ST LOUIS INTL  PTSUNNY   64  37  36 SE22      29.83F
SPIRIT OF STL  PTSUNNY   64  37  36 SE13G18   29.81R
ST CHARLES     PTSUNNY   63  37  38 SE20      29.82F

$$
MOZ072>076-082>087-097>100-106>115-241600-
...SOUTH CENTRAL AND SOUTHEAST MISSOURI...

CITY           SKY/WX    TMP DP  RH WIND       PRES   REMARKS
CAPE GIRARDEAU SUNNY     66  42  41 S13       29.87F
FARMINGTON     SUNNY     64  41  42 S17       29.85F
POPLAR BLUFF   MOSUNNY   65  42  43 S10       29.85F
WEST PLAINS    MOSUNNY   66  41  40 S13G21    29.83R

$$



USA.gov is the U.S. government's official web portal to all federal, state and local government web resources and services.